Weather History for Warsaw, IN

Change the Weather History Date:

Tuesday, February 28, 2012

  Actual Average Record
Temperature  
Mean Temperature 32 °F -  
Max Temperature 42 °F 40 °F 62 °F (1976)
Min Temperature 21 °F 21 °F -4 °F (2014)
Degree Days  
Heating Degree Days 34    
Moisture  
Dew Point 24 °F    
Average Humidity 75    
Maximum Humidity 93    
Minimum Humidity 49    
Precipitation  
Precipitation 0.00 in - - ()
Sea Level Pressure  
Sea Level Pressure 30.37 in    
Wind  
Wind Speed 3 mph (SE)    
Max Wind Speed 14 mph    
Max Gust Speed 16 mph    
Visibility 9 miles    
Events      
Averages and records for this station are not official NWS values.
T = Trace of Precipitation, MM = Missing Value Source: NWS Daily Summary

Daily Weather History Graph

Daily Weather History Graph

Search for Another Location

Airport:

Trip Planner

Search our weather history database for the weather conditions in past years. The results will help you decide how hot, cold, wet, or windy it might be!

Date:

Astronomy

Feb. 28, 2012 Rise Set
Actual Time 7:20 AM EST 6:32 PM EST
Civil Twilight 6:52 AM EST 7:00 PM EST
Nautical Twilight 6:20 AM EST 7:32 PM EST
Astronomical Twilight 5:48 AM EST 8:04 PM EST
Moon 10:22 AM EST (2/28) 12:28 AM EST (2/28)
Length of Visible Light 12h 07m
Length of Day
11h 12m
Waxing Crescent, 37% of the Moon is Illuminated
Feb 28
Waxing Crescent
Feb 29
First Quarter
Mar 8
Full
Mar 14
Last Quarter
Mar 22
New

Hourly Weather History & Observations

Time (EST) Temp. Windchill Dew Point Humidity Pressure Visibility Wind Dir Wind Speed Gust Speed Precip Events Conditions
12:15 AM 23.0 °F - 21.2 °F 93% 30.48 in 7.0 mi Calm Calm - N/A   Clear
12:35 AM 23.0 °F - 21.2 °F 93% 30.49 in 7.0 mi Calm Calm - N/A   Clear
12:55 AM 23.0 °F - 21.2 °F 93% 30.48 in 7.0 mi Calm Calm - N/A   Clear
1:15 AM 23.0 °F - 21.2 °F 93% 30.48 in 7.0 mi Calm Calm - N/A   Clear
1:35 AM 23.0 °F - 21.2 °F 93% 30.48 in 7.0 mi Calm Calm - N/A   Clear
1:55 AM 23.0 °F - 21.2 °F 93% 30.48 in 10.0 mi Calm Calm - N/A   Clear
2:15 AM 23.0 °F - 21.2 °F 93% 30.48 in 10.0 mi Calm Calm - N/A   Clear
2:35 AM 23.0 °F - 21.2 °F 93% 30.48 in 10.0 mi Calm Calm - N/A   Clear
2:55 AM 23.0 °F - 21.2 °F 93% 30.48 in 10.0 mi Calm Calm - N/A   Clear
3:15 AM 23.0 °F - 21.2 °F 93% 30.48 in 7.0 mi Calm Calm - N/A   Clear
3:35 AM 21.2 °F - 19.4 °F 93% 30.48 in 7.0 mi Calm Calm - N/A   Clear
3:55 AM 21.2 °F - 19.4 °F 93% 30.48 in 7.0 mi Calm Calm - N/A   Clear
4:15 AM 23.0 °F - 19.4 °F 86% 30.47 in 7.0 mi Calm Calm - N/A   Clear
4:35 AM 23.0 °F - 21.2 °F 93% 30.47 in 7.0 mi Calm Calm - N/A   Clear
4:55 AM 21.2 °F - 19.4 °F 93% 30.47 in 7.0 mi Calm Calm - N/A   Clear
5:15 AM 23.0 °F - 21.2 °F 93% 30.47 in 10.0 mi Calm Calm - N/A   Clear
5:35 AM 21.2 °F 16.4 °F 19.4 °F 93% 30.46 in 7.0 mi ESE 3.5 mph - N/A   Clear
5:55 AM 21.2 °F - 19.4 °F 93% 30.46 in 7.0 mi Calm Calm - N/A   Clear
6:15 AM 23.0 °F - 19.4 °F 86% 30.47 in 7.0 mi Calm Calm - N/A   Clear
6:35 AM 24.8 °F - 21.2 °F 86% 30.47 in 7.0 mi Calm Calm - N/A   Clear
6:55 AM 21.2 °F - 19.4 °F 93% 30.47 in 5.0 mi Calm Calm - N/A   Clear
7:15 AM 21.2 °F - 19.4 °F 93% 30.48 in 5.0 mi Calm Calm - N/A   Clear
7:35 AM 23.0 °F - 21.2 °F 93% 30.48 in 5.0 mi Calm Calm - N/A   Clear
8:15 AM 26.6 °F - 23.0 °F 86% 30.48 in 5.0 mi Calm Calm - N/A   Scattered Clouds
8:35 AM 26.6 °F - 23.0 °F 86% 30.48 in 7.0 mi Calm Calm - N/A   Mostly Cloudy
8:55 AM 28.4 °F 24.6 °F 24.8 °F 86% 30.47 in 7.0 mi SE 3.5 mph - N/A   Mostly Cloudy
9:15 AM 30.2 °F 23.4 °F 24.8 °F 80% 30.47 in 7.0 mi SE 6.9 mph - N/A   Scattered Clouds
9:35 AM 32.0 °F 25.6 °F 26.6 °F 80% 30.46 in 10.0 mi SE 6.9 mph - N/A   Scattered Clouds
9:55 AM 32.0 °F 24.2 °F 26.6 °F 80% 30.45 in 10.0 mi SE 9.2 mph - N/A   Mostly Cloudy
10:15 AM 32.0 °F 23.6 °F 24.8 °F 75% 30.43 in 10.0 mi SE 10.4 mph 16.1 mph N/A   Overcast
10:35 AM 33.8 °F 25.8 °F 26.6 °F 75% 30.43 in 10.0 mi SE 10.4 mph - N/A   Scattered Clouds
10:55 AM 33.8 °F 25.8 °F 26.6 °F 75% 30.43 in 10.0 mi SE 10.4 mph - N/A   Clear
11:15 AM 33.8 °F 26.4 °F 26.6 °F 75% 30.41 in 10.0 mi ESE 9.2 mph - N/A   Scattered Clouds
11:35 AM 35.6 °F 28.6 °F 26.6 °F 70% 30.41 in 10.0 mi SE 9.2 mph - N/A   Scattered Clouds
11:55 AM 35.6 °F 29.2 °F 26.6 °F 70% 30.40 in 10.0 mi SE 8.1 mph - N/A   Clear
12:15 PM 37.4 °F 30.8 °F 26.6 °F 65% 30.38 in 10.0 mi SE 9.2 mph - N/A   Scattered Clouds
12:35 PM 37.4 °F 32.1 °F 24.8 °F 60% 30.37 in 10.0 mi SSE 6.9 mph - N/A   Overcast
12:55 PM 41.0 °F 35.8 °F 26.6 °F 57% 30.36 in 10.0 mi South 8.1 mph - N/A   Overcast
1:15 PM 37.4 °F 32.1 °F 24.8 °F 60% 30.35 in 10.0 mi SE 6.9 mph - N/A   Mostly Cloudy
1:35 PM 39.2 °F 33.0 °F 26.6 °F 61% 30.32 in 10.0 mi South 9.2 mph 16.1 mph N/A   Scattered Clouds
2:15 PM 41.0 °F 36.4 °F 26.6 °F 57% 30.30 in 10.0 mi SE 6.9 mph - N/A   Scattered Clouds
2:35 PM 41.0 °F 35.2 °F 26.6 °F 57% 30.30 in 10.0 mi ESE 9.2 mph - N/A   Mostly Cloudy
2:55 PM 41.0 °F 37.1 °F 26.6 °F 57% 30.29 in 10.0 mi SSE 5.8 mph - N/A   Overcast
3:15 PM 42.8 °F 38.0 °F 24.8 °F 49% 30.27 in 10.0 mi SSE 8.1 mph - N/A   Scattered Clouds
3:35 PM 42.8 °F 38.0 °F 26.6 °F 53% 30.26 in 10.0 mi SE 8.1 mph - N/A   Clear
4:15 PM 42.8 °F 38.0 °F 28.4 °F 57% 30.24 in 10.0 mi SE 8.1 mph - N/A   Clear
4:35 PM 42.8 °F 37.5 °F 26.6 °F 53% 30.23 in 10.0 mi SE 9.2 mph - N/A   Mostly Cloudy
4:55 PM 42.8 °F 38.0 °F 28.4 °F 57% 30.23 in 10.0 mi ESE 8.1 mph - N/A   Overcast
5:15 PM 41.0 °F 35.8 °F 28.4 °F 61% 30.21 in 10.0 mi SE 8.1 mph - N/A   Overcast
5:35 PM 41.0 °F 35.8 °F 28.4 °F 61% 30.20 in 10.0 mi SE 8.1 mph - N/A   Overcast
5:55 PM 41.0 °F 34.7 °F 28.4 °F 61% 30.19 in 10.0 mi ESE 10.4 mph - N/A   Overcast
6:15 PM 41.0 °F 35.8 °F 28.4 °F 61% 30.20 in 10.0 mi ESE 8.1 mph - N/A   Overcast
6:35 PM 41.0 °F 35.8 °F 28.4 °F 61% 30.18 in 10.0 mi East 8.1 mph - N/A   Overcast
6:55 PM 41.0 °F 36.4 °F 28.4 °F 61% 30.19 in 10.0 mi East 6.9 mph - N/A   Overcast
7:15 PM 39.2 °F 33.6 °F 28.4 °F 65% 30.19 in 10.0 mi East 8.1 mph - N/A   Overcast
7:35 PM 41.0 °F 36.4 °F 28.4 °F 61% 30.18 in 10.0 mi ESE 6.9 mph - N/A   Overcast
7:55 PM 39.2 °F 33.6 °F 28.4 °F 65% 30.18 in 10.0 mi ESE 8.1 mph - N/A   Overcast
8:35 PM 41.0 °F 35.2 °F 28.4 °F 61% 30.15 in 10.0 mi ESE 9.2 mph 16.1 mph N/A   Overcast
8:55 PM 41.0 °F 33.5 °F 28.4 °F 61% 30.13 in 10.0 mi ESE 13.8 mph - N/A   Overcast
9:15 PM 41.0 °F 33.9 °F 28.4 °F 61% 30.12 in 10.0 mi ESE 12.7 mph - N/A   Overcast
9:35 PM 41.0 °F 33.5 °F 30.2 °F 65% 30.09 in 10.0 mi East 13.8 mph - N/A   Overcast
9:55 PM 41.0 °F 33.9 °F 30.2 °F 65% 30.09 in 10.0 mi ESE 12.7 mph - N/A   Overcast
10:15 PM 41.0 °F 33.5 °F 30.2 °F 65% 30.07 in 10.0 mi ESE 13.8 mph 20.7 mph N/A   Overcast
10:35 PM 41.0 °F 33.9 °F 30.2 °F 65% 30.05 in 10.0 mi ESE 12.7 mph 20.7 mph N/A Rain Light Rain
10:55 PM 39.2 °F 31.6 °F 32.0 °F 75% 30.04 in 10.0 mi East 12.7 mph - N/A Rain Light Rain
11:15 PM 39.2 °F 31.6 °F 32.0 °F 75% 30.03 in 10.0 mi ESE 12.7 mph 16.1 mph N/A Rain Rain
11:35 PM 37.4 °F 28.2 °F 32.0 °F 81% 30.00 in 10.0 mi East 16.1 mph - 0.01 in Rain Light Rain
11:55 PM 37.4 °F 28.5 °F 32.0 °F 81% 29.98 in 10.0 mi ESE 15.0 mph - 0.01 in Rain Light Rain